Location: Les Chemineaux
(47.3024°N, 1.5104°E)
Time: 22:43:42
(UTC+00:00)

Cosmos 2298 Rocket - Pass Details

Date: 19 May 2025
Orbit: 773 x 782 km, 74.0° (Epoch: 12 June)

Event Time Altitude Azimuth Distance (km) Brightness Sun altitude
Rises 21:17:09 0° 340° (NNW) 3,280 8.8 -14.4°
Reaches altitude 10° 21:19:36 10° 344° (NNW) 2,348 7.7 -14.7°
Maximum altitude 21:24:52 58° 64° (ENE) 909 4.3 -15.2°
Enters shadow 21:27:58 24° 135° (SE) 1,566 5.0 -15.5°
